User: anonymous   Login
Location: Baix
(44.7118°N, 4.7648°E)
Time: 16:18:49
(UTC+00:00)
Language:

Vanguard 2 Rocket - Orbit

View from above orbital plane
View from above orbital plane
View from above satellite
View from above satellite

Ground track
Ground track

The orbit data is extracted from the following two-line orbital elements,

1 00012U 59001B   21125.87178751 -.00000013  00000-0 -16407-4 0  9991
2 00012  32.9066 302.8193 1666612 331.1413  20.6151 11.44399767316928
Epoch (UTC): 05 May 2021 20:55:22
Eccentricity: 0.1666612
inclination: 32.9066°
perigee height: 553 km
apogee height: 3326 km
right ascension of ascending node: 302.8193°
argument of perigee: 331.1413°
revolutions per day: 11.44399767
mean anomaly at epoch: 20.6151°
orbit number at epoch: 31692

The dashed part of the orbit path shows where the satellite is in the earth's shadow,  

DLR